sat.trackr.live / text

‹ back to catalog

GEESAT-2 09

NORAD 58913 · 2024-023J

PAYLOAD ACTIVE UNKNOWN

§ Identity

Operator
Country
PRC
Launch date
2024-02-02
Launch site
XICLF
Launch vehicle
Mass (kg)
RCS (m²)

External: N2YO · Heavens-Above · Gunter

§ Orbital elements

Epoch: 2026-09-22T13:28:03.899136Z

Period
97.07 min
Inclination
50.0030°
Eccentricity
0.0021335
Mean motion
14.83458183 rev/d
Perigee alt
603.5 km
Apogee alt
633.4 km
Semi-major
6,996.6 km
B*
1.5419e-4
RAAN
263.1654°
Arg perigee
19.8738°
Mean anomaly
340.3027°
Rev number
14,337

§ Raw data

GEESAT-2 091 58913U 24023J   26265.56115624  .00001054  00000+0  15419-3 0  99902 58913  50.0030 263.1654 0021335  19.8738 340.3027 14.83458183143375

JSON: /api/v1/satellites/58913 · /tle

For live sub-satellite position, see the globe view (requires WebGL).

§ Visibility from observer

Set your observer location to see the next 7 days of passes ≥ 10°. The values pass through the URL so the page stays shareable.

No JS? Fill the form by hand. The geolocation button needs JavaScript.